Skip Page Navigation
NASA JPL Caltech
NASA Logo - Jet Propulsion Laboratory + View the NASA Portal
+ Center for Near-Earth Object Studies
JPL Home Earth Solar System Stars & Galaxies Technology
JPL Solar System Dynamics
BODIES ORBITS EPHEMERIDES TOOLS PHYSICAL DATA DISCOVERY FAQ SITE MAP
JPL Small-Body Database Browser
Search: [ help ]  
(2015 CG13)
Classification: Apollo [NEO]          SPK-ID: 3710215
Ephemeris | Orbit Diagram | Orbital Elements | Mission Design | Physical Parameters | Close-Approach Data ]

[ show orbit diagram ]
Orbital Elements at Epoch 2457071.5 (2015-Feb-18.0) TDB
Reference: JPL 5 (heliocentric ecliptic J2000)
 Element Value Uncertainty (1-sigma)   Units 
e .9165618421050239 0.0011487  
a 2.508423078233101 0.02809 au
q .2092982008690155 0.00053776 au
i 7.125943889162663 0.022865 deg
node 133.8075555812879 0.0065835 deg
peri 228.9255048394827 0.0043578 deg
M 12.68583104500305 0.22703 deg
tp 2457020.365262512738
(2014-Dec-28.86526251)
0.056192 TDB
period 1451.107572701391
3.97
24.375
0.06674
d
yr
n .2480863629770891 0.0041672 deg/d
Q 4.807547955597187 0.053836 au
  Orbit Determination Parameters
   # obs. used (total)      18  
   data-arc span      14 days  
   first obs. used      2015-02-11  
   last obs. used      2015-02-25  
   planetary ephem.      DE431  
   SB-pert. ephem.      SB431-N16  
   condition code      9  
   norm. resid. RMS      .49502  
   source      ORB  
   producer      Otto Matic  
   solution date      2017-Apr-06 08:35:42  

Additional Information
 Earth MOID = .00159259 au 
 Jupiter MOID = .739696 au 
 T_jup = 2.625 
[ show covariance matrix ]

Ephemeris | Orbit Diagram | Orbital Elements | Mission Design | Physical Parameters | Close-Approach Data ]

Physical Parameter Table
Parameter Symbol Value Units Sigma Reference Notes
absolute magnitude H 24.1   n/a MPO335354  

[ show close-approach data ]
Ephemeris | Orbit Diagram | Orbital Elements | Mission Design | Physical Parameters | Close-Approach Data ]
ABOUT SSD CREDITS/AWARDS PRIVACY/COPYRIGHT GLOSSARY LINKS
FirstGov 2020-Aug-04 21:44 UT
(server date/time)  
NASA Home Page
Site Manager:   Ryan S. Park
Webmaster  Alan B. Chamberlin